McHenry, MD

10:57 AM EST on February 20, 2017 (GMT -0500)
Oakland

Weather History for K2G4 - July, 2013

Change the Weather History Date:

Tuesday, July 2, 2013

  Actual Average (KMGW) Record (KMGW)
Temperature  
Mean Temperature 68 °F -  
Max Temperature 75 °F 82 °F 101 °F (1966)
Min Temperature 62 °F 61 °F 45 °F (1988)
Cooling Degree Days 4    
Growing Degree Days 18 (Base 50)    
Moisture  
Dew Point 67 °F    
Average Humidity 90    
Maximum Humidity 100    
Minimum Humidity 73    
Precipitation  
Precipitation 0.00 in - - ()
Sea Level Pressure  
Sea Level Pressure 30.13 in    
Wind  
Wind Speed 7 mph (SSE)    
Max Wind Speed 12 mph    
Max Gust Speed 17 mph    
Visibility 9 miles    
Events      
Averages and records for this station are not official NWS values.
T = Trace of Precipitation, MM = Missing Value Source: NWS Daily Summary

Daily Weather History Graph

Daily Weather History Graph

Search for Another Location

Airport or City:

Trip Planner

Search our weather history database for the weather conditions in past years. The results will help you decide how hot, cold, wet, or windy it might be!

Date:

Astronomy

Jul. 02, 2013 Rise Set
Actual Time 5:54 AM EDT 8:48 PM EDT
Civil Twilight 5:21 AM EDT 9:20 PM EDT
Nautical Twilight 4:41 AM EDT 10:01 PM EDT
Astronomical Twilight 3:53 AM EDT 10:48 PM EDT
Moon 1:55 AM EDT (7/2) 4:01 PM EDT (7/2)
Length of Visible Light 15h 59m
Length of Day
14h 54m
Waning Crescent, 26% of the Moon is Illuminated
Jul 2
Waning Crescent
Jul 8
New
Jul 15
First Quarter
Jul 22
Full
Jul 29
Last Quarter

Hourly Weather History & Observations

Time (EDT) Temp. Dew Point Humidity Pressure Visibility Wind Dir Wind Speed Gust Speed Precip Events Conditions
12:05 AM 64.4 °F - N/A% 30.06 in 10.0 mi SSE 5.8 mph - N/A   Mostly Cloudy
12:25 AM 64.4 °F - N/A% 30.06 in 10.0 mi SSE 5.8 mph - N/A   Mostly Cloudy
12:45 AM 64.4 °F 64.4 °F 100% 30.06 in 10.0 mi SE 5.8 mph - N/A   Overcast
1:05 AM 64.4 °F 64.4 °F 100% 30.06 in 10.0 mi SE 5.8 mph - N/A   Mostly Cloudy
1:25 AM 64.4 °F 64.4 °F 100% 30.06 in 10.0 mi SE 6.9 mph - N/A   Mostly Cloudy
1:45 AM 64.4 °F - N/A% 30.06 in 7.0 mi SE 6.9 mph - N/A   Scattered Clouds
2:05 AM 64.4 °F - N/A% 30.06 in 7.0 mi SE 5.8 mph - N/A   Mostly Cloudy
2:25 AM 62.6 °F - N/A% 30.06 in 5.0 mi SSE 5.8 mph - N/A   Haze
2:45 AM 62.6 °F - N/A% 30.06 in 7.0 mi SSE 5.8 mph - N/A   Clear
3:05 AM 62.6 °F - N/A% 30.06 in 7.0 mi SSE 4.6 mph - N/A   Clear
3:25 AM 62.6 °F - N/A% 30.06 in 7.0 mi SSE 5.8 mph - N/A   Clear
3:45 AM 62.6 °F - N/A% 30.06 in 10.0 mi SSE 5.8 mph - N/A   Clear
4:05 AM 62.6 °F - N/A% 30.06 in 10.0 mi SSE 3.5 mph - N/A   Scattered Clouds
4:25 AM 62.6 °F - N/A% 30.06 in 7.0 mi SE 4.6 mph - N/A   Clear
4:45 AM 62.6 °F - N/A% 30.07 in 10.0 mi SSE 5.8 mph - N/A   Clear
5:05 AM 62.6 °F - N/A% 30.07 in 7.0 mi SE 8.1 mph - N/A   Clear
5:25 AM 62.6 °F - N/A% 30.08 in 5.0 mi SE 6.9 mph - N/A   Haze
5:45 AM 62.6 °F - N/A% 30.08 in 4.0 mi SE 6.9 mph - N/A   Haze
6:05 AM 62.6 °F - N/A% 30.09 in 3.0 mi SE 6.9 mph - N/A   Clear
6:25 AM 62.6 °F - N/A% 30.09 in 5.0 mi SSE 6.9 mph - N/A   Haze
6:45 AM 62.6 °F - N/A% 30.09 in 7.0 mi SE 5.8 mph - N/A   Scattered Clouds
7:05 AM 62.6 °F - N/A% 30.10 in 5.0 mi SE 6.9 mph - N/A   Haze
7:25 AM 62.6 °F - N/A% 30.11 in 4.0 mi SE 6.9 mph - N/A   Haze
7:45 AM 64.4 °F - N/A% 30.11 in 4.0 mi SE 8.1 mph - N/A   Haze
8:05 AM 64.4 °F - N/A% 30.11 in 5.0 mi SE 6.9 mph - N/A   Haze
8:25 AM 64.4 °F - N/A% 30.13 in 7.0 mi SSE 8.1 mph - N/A   Mostly Cloudy
8:45 AM 64.4 °F - N/A% 30.12 in 7.0 mi SE 5.8 mph - N/A   Overcast
9:05 AM 66.2 °F 66.2 °F 100% 30.13 in 7.0 mi SE 6.9 mph - N/A   Mostly Cloudy
9:25 AM 68.0 °F 68.0 °F 100% 30.13 in 10.0 mi SE 6.9 mph - N/A   Scattered Clouds
10:05 AM 69.8 °F 69.8 °F 100% 30.14 in 10.0 mi SE 6.9 mph - N/A   Scattered Clouds
10:25 AM 69.8 °F 69.8 °F 100% 30.14 in 10.0 mi South 8.1 mph - N/A   Mostly Cloudy
10:45 AM 71.6 °F 69.8 °F 94% 30.15 in 10.0 mi SSW 5.8 mph - N/A   Mostly Cloudy
11:05 AM 69.8 °F 68.0 °F 94% 30.15 in 10.0 mi SSW 5.8 mph - N/A   Mostly Cloudy
11:25 AM 69.8 °F 68.0 °F 94% 30.16 in 10.0 mi South 5.8 mph - N/A   Overcast
11:45 AM 71.6 °F 69.8 °F 94% 30.16 in 10.0 mi South 5.8 mph - N/A   Overcast
12:05 PM 73.4 °F 68.0 °F 83% 30.16 in 10.0 mi South 9.2 mph - N/A   Mostly Cloudy
12:25 PM 73.4 °F 66.2 °F 78% 30.15 in 10.0 mi SSW 6.9 mph - N/A   Mostly Cloudy
12:45 PM 71.6 °F 68.0 °F 88% 30.16 in 10.0 mi SSW 9.2 mph - N/A   Overcast
1:05 PM 73.4 °F 66.2 °F 78% 30.16 in 10.0 mi South 11.5 mph - N/A   Mostly Cloudy
1:25 PM 71.6 °F 66.2 °F 83% 30.16 in 10.0 mi SSW 11.5 mph - N/A   Scattered Clouds
1:45 PM 71.6 °F 68.0 °F 88% 30.17 in 10.0 mi SSE 5.8 mph - N/A   Mostly Cloudy
2:05 PM 73.4 °F 69.8 °F 88% 30.16 in 10.0 mi South 5.8 mph - N/A   Mostly Cloudy
2:25 PM 71.6 °F 68.0 °F 88% 30.16 in 10.0 mi South 9.2 mph - N/A   Mostly Cloudy
2:45 PM 71.6 °F 66.2 °F 83% 30.16 in 10.0 mi South 5.8 mph - N/A   Mostly Cloudy
3:05 PM 73.4 °F 68.0 °F 83% 30.16 in 10.0 mi SSW 6.9 mph - N/A   Mostly Cloudy
3:25 PM 71.6 °F 68.0 °F 88% 30.16 in 10.0 mi West 4.6 mph - N/A   Scattered Clouds
3:45 PM 73.4 °F 68.0 °F 83% 30.15 in 10.0 mi SW 5.8 mph - N/A   Scattered Clouds
4:05 PM 75.2 °F 68.0 °F 78% 30.15 in 10.0 mi SSW 4.6 mph - N/A   Clear
4:25 PM 75.2 °F 68.0 °F 78% 30.15 in 10.0 mi South 5.8 mph - N/A   Clear
4:45 PM 75.2 °F 68.0 °F 78% 30.15 in 10.0 mi SSW 6.9 mph - N/A   Clear
5:05 PM 73.4 °F 66.2 °F 78% 30.16 in 10.0 mi South 5.8 mph - N/A   Mostly Cloudy
5:25 PM 73.4 °F 66.2 °F 78% 30.16 in 10.0 mi South 5.8 mph - N/A   Mostly Cloudy
5:45 PM 75.2 °F 66.2 °F 73% 30.15 in 10.0 mi SE 6.9 mph - N/A   Scattered Clouds
6:10 PM 73.4 °F 68.0 °F 83% 30.16 in 10.0 mi SE 8.1 mph - N/A   Scattered Clouds
6:30 PM 73.4 °F 68.0 °F 83% 30.17 in 10.0 mi SSE 10.4 mph - N/A   Scattered Clouds
6:50 PM 71.6 °F 68.0 °F 88% 30.18 in 10.0 mi SSE 10.4 mph - N/A   Scattered Clouds
7:10 PM 71.6 °F 68.0 °F 88% 30.18 in 10.0 mi SE 11.5 mph - N/A   Scattered Clouds
7:30 PM 71.6 °F 68.0 °F 88% 30.17 in 10.0 mi SSE 11.5 mph 17.3 mph N/A   Clear
7:50 PM 69.8 °F 66.2 °F 88% 30.18 in 10.0 mi SE 11.5 mph 16.1 mph N/A   Scattered Clouds
8:10 PM 69.8 °F 64.4 °F 83% 30.18 in 10.0 mi SE 8.1 mph - N/A   Clear
8:30 PM 68.0 °F 64.4 °F 88% 30.18 in 10.0 mi SSE 9.2 mph - N/A   Clear
8:50 PM 66.2 °F 64.4 °F 94% 30.19 in 10.0 mi SSE 9.2 mph - N/A   Clear
9:10 PM 66.2 °F 64.4 °F 94% 30.18 in 10.0 mi SSE 9.2 mph - N/A   Clear
9:30 PM 66.2 °F 64.4 °F 94% 30.20 in 10.0 mi SSE 6.9 mph - N/A   Clear
9:50 PM 64.4 °F 64.4 °F 100% 30.20 in 10.0 mi SSE 6.9 mph - N/A   Clear
10:10 PM 64.4 °F 64.4 °F 100% 30.20 in 10.0 mi SE 5.8 mph - N/A   Clear
10:30 PM 64.4 °F 64.4 °F 100% 30.20 in 10.0 mi SE 5.8 mph - N/A   Clear
10:50 PM 64.4 °F 64.4 °F 100% 30.20 in 10.0 mi SE 6.9 mph - N/A   Clear
11:10 PM 62.6 °F 62.6 °F 100% 30.20 in 10.0 mi SSE 8.1 mph - N/A   Clear
11:30 PM 64.4 °F 64.4 °F 100% 30.20 in 10.0 mi SE 8.1 mph - N/A   Clear
11:50 PM 64.4 °F 64.4 °F 100% 30.20 in 10.0 mi SE 8.1 mph - N/A   Scattered Clouds